Location: Waco, TX
(31.5480°N, 97.1670°W)
Time: 16:14:02
(UTC-05:00)

ISS - Pass Details

Date: 15 August 2019
Orbit: 410 x 421 km, 51.6° (Epoch: 22 August)

Event Time Altitude Azimuth Distance (km) Brightness Sun altitude
Rises 18:32:53 0° 308° (NW) 2,367 1.0 19.9°
Reaches altitude 10° 18:35:03 10° 302° (WNW) 1,499 0.3 19.5°
Maximum altitude 18:38:17 45° 229° (SW) 581 -2.3 18.8°
Drops below altitude 10° 18:41:29 10° 155° (SSE) 1,488 -1.2 18.1°
Sets 18:43:37 0° 149° (SSE) 2,346 -0.3 17.6°
